Time,TemperatureF,DewpointF,PressureIn,WindDirection,WindDirectionDegrees,WindSpeedMPH,WindSpeedGustMPH,Humidity,HourlyPrecipIn,Conditions,Clouds,dailyrainin,SolarRadiationWatts/m^2,SoftwareType,DateUTC
2013-01-01 00:00:00,40.2,27.0,29.78,NNW,342,3.5,3.5,59,0.01,RA,,0.00,0.0,WeatherDisplay:10.37,2013-01-01 05:00:00,
2013-01-01 00:02:00,40.2,27.0,29.78,SW,236,2.3,2.3,59,0.01,RA,,0.00,0.0,WeatherDisplay:10.37,2013-01-01 05:02:00,
2013-01-01 00:03:00,40.2,27.0,29.78,SW,219,3.5,3.5,59,0.01,RA,,0.00,0.0,WeatherDisplay:10.37,2013-01-01 05:03:00,
2013-01-01 00:05:00,40.2,27.0,29.78,SW,223,1.1,1.1,59,0.01,RA,,0.00,0.0,WeatherDisplay:10.37,2013-01-01 05:05:00,
2013-01-01 00:10:00,40.3,27.1,29.78,West,271,2.3,2.3,59,0.01,OVC,,0.00,0.0,WeatherDisplay:10.37,2013-01-01 05:10:00,
2013-01-01 00:15:00,40.3,26.7,29.77,West,267,1.1,1.1,58,0.00,OVC,,0.00,0.0,WeatherDisplay:10.37,2013-01-01 05:15:00,
2013-01-01 00:20:00,40.3,27.1,29.77,West,271,4.6,4.6,59,0.00,OVC,,0.00,0.0,WeatherDisplay:10.37,2013-01-01 05:20:00,
2013-01-01 00:25:00,40.3,27.1,29.77,WSW,239,1.1,1.1,59,0.00,OVC,,0.00,0.0,WeatherDisplay:10.37,2013-01-01 05:25:00,
2013-01-01 00:30:00,40.3,27.1,29.76,WSW,256,1.1,1.1,59,0.01,RA,,0.01,0.0,WeatherDisplay:10.37,2013-01-01 05:30:00,
2013-01-01 00:35:00,40.3,27.1,29.76,WSW,239,1.1,1.1,59,0.01,RA,,0.01,0.0,WeatherDisplay:10.37,2013-01-01 05:35:00,
2013-01-01 00:40:00,40.3,27.5,29.76,West,275,1.1,0.0,60,0.01,OVC,,0.01,0.0,WeatherDisplay:10.37,2013-01-01 05:40:00,
2013-01-01 00:45:00,40.3,27.5,29.77,West,274,3.5,3.5,60,0.02,RA,,0.02,0.0,WeatherDisplay:10.37,2013-01-01 05:45:00,
2013-01-01 00:50:00,40.2,27.8,29.77,WSW,244,3.5,0.0,61,0.02,RA,,0.02,0.0,WeatherDisplay:10.37,2013-01-01 05:50:00,
2013-01-01 00:55:00,40.1,28.1,29.77,WSW,239,0.0,0.0,62,0.02,OVC,,0.02,0.0,WeatherDisplay:10.37,2013-01-01 05:55:00,
2013-01-01 01:00:00,40.1,27.7,29.77,WNW,284,1.1,1.1,61,0.02,OVC,,0.02,0.0,WeatherDisplay:10.37,2013-01-01 06:00:00,
2013-01-01 01:05:00,40.1,28.1,29.77,WSW,257,0.0,0.2,62,0.02,OVC,,0.02,0.0,WeatherDisplay:10.37,2013-01-01 06:05:00,
2013-01-01 01:10:00,40.1,28.1,29.77,WSW,257,0.0,0.1,62,0.02,OVC,,0.02,0.0,WeatherDisplay:10.37,2013-01-01 06:10:00,
2013-01-01 01:15:00,39.9,28.3,29.77,North,0,1.1,0.0,63,0.02,OVC,,0.02,0.0,WeatherDisplay:10.37,2013-01-01 06:15:00,
2013-01-01 01:20:00,39.9,27.9,29.77,SSW,193,2.0,2.0,62,0.02,OVC,,0.02,0.0,WeatherDisplay:10.37,2013-01-01 06:20:00,
2013-01-01 01:25:00,40.1,27.7,29.77,WNW,292,3.5,3.5,61,0.02,OVC,,0.02,0.0,WeatherDisplay:10.37,2013-01-01 06:25:00,
2013-01-01 01:30:00,40.1,28.1,29.76,SSW,210,1.1,1.1,62,0.01,OVC,,0.02,0.0,WeatherDisplay:10.37,2013-01-01 06:30:00,
2013-01-01 01:35:00,40.1,28.1,29.76,West,278,2.3,0.0,62,0.01,OVC,,0.02,0.0,WeatherDisplay:10.37,2013-01-01 06:35:00,
2013-01-01 01:40:00,40.1,27.7,29.76,SSW,212,2.3,2.3,61,0.01,OVC,,0.02,0.0,WeatherDisplay:10.37,2013-01-01 06:40:00,
2013-01-01 01:45:00,40.2,27.4,29.76,SW,229,1.1,0.0,60,0.00,OVC,,0.02,0.0,WeatherDisplay:10.37,2013-01-01 06:45:00,
2013-01-01 01:50:00,40.2,27.8,29.76,WNW,289,2.3,0.0,61,0.00,OVC,,0.02,0.0,WeatherDisplay:10.37,2013-01-01 06:50:00,
2013-01-01 01:55:00,40.2,27.4,29.76,WSW,246,1.0,1.0,60,0.01,RA,,0.03,0.0,WeatherDisplay:10.37,2013-01-01 06:55:00,
2013-01-01 02:00:00,40.2,27.4,29.77,NW,309,1.1,1.1,60,0.01,RA,,0.03,0.0,WeatherDisplay:10.37,2013-01-01 07:00:00,
2013-01-01 02:05:00,40.2,27.4,29.77,SSW,196,1.1,1.1,60,0.01,OVC,,0.03,0.0,WeatherDisplay:10.37,2013-01-01 07:05:00,
2013-01-01 02:10:00,40.2,27.4,29.77,West,265,1.1,0.0,60,0.01,OVC,,0.03,0.0,WeatherDisplay:10.37,2013-01-01 07:10:00,
2013-01-01 02:15:00,40.2,27.4,29.77,NW,313,4.6,4.6,60,0.01,OVC,,0.03,0.0,WeatherDisplay:10.37,2013-01-01 07:15:00,
2013-01-01 02:20:00,40.2,27.4,29.77,SSW,212,2.3,2.3,60,0.01,OVC,,0.03,0.0,WeatherDisplay:10.37,2013-01-01 07:20:00,
2013-01-01 02:25:00,40.3,27.5,29.77,SSE,154,3.5,3.5,60,0.01,OVC,,0.03,0.0,WeatherDisplay:10.37,2013-01-01 07:25:00,
2013-01-01 02:30:00,40.3,27.9,29.78,SW,234,4.6,4.6,61,0.01,OVC,,0.03,0.0,WeatherDisplay:10.37,2013-01-01 07:30:00,
2013-01-01 02:35:00,40.3,27.9,29.78,WNW,285,5.8,5.8,61,0.01,OVC,,0.03,0.0,WeatherDisplay:10.37,2013-01-01 07:35:00,
2013-01-01 02:40:00,40.3,27.5,29.78,SSW,199,4.6,4.6,60,0.01,OVC,,0.03,0.0,WeatherDisplay:10.37,2013-01-01 07:40:00,
2013-01-01 02:45:00,40.3,27.9,29.78,SW,222,3.5,3.5,61,0.01,OVC,,0.03,0.0,WeatherDisplay:10.37,2013-01-01 07:45:00,
2013-01-01 02:50:00,40.3,27.9,29.78,SW,229,2.3,2.3,61,0.01,OVC,,0.03,0.0,WeatherDisplay:10.37,2013-01-01 07:50:00,
2013-01-01 02:55:00,40.3,27.9,29.78,SW,226,0.0,0.1,61,0.00,OVC,,0.03,0.0,WeatherDisplay:10.37,2013-01-01 07:55:00,
2013-01-01 03:00:00,40.3,27.9,29.78,WSW,244,1.1,0.0,61,0.00,OVC,,0.03,0.0,WeatherDisplay:10.37,2013-01-01 08:00:00,
2013-01-01 03:05:00,40.3,27.9,29.78,West,267,1.1,1.1,61,0.00,OVC,,0.03,0.0,WeatherDisplay:10.37,2013-01-01 08:05:00,
2013-01-01 03:10:00,40.3,27.9,29.78,WSW,254,1.1,1.1,61,0.00,OVC,,0.03,0.0,WeatherDisplay:10.37,2013-01-01 08:10:00,
2013-01-01 03:15:00,40.3,28.3,29.79,NW,319,4.6,4.6,62,0.00,OVC,,0.03,0.0,WeatherDisplay:10.37,2013-01-01 08:15:00,
2013-01-01 03:20:00,40.2,28.2,29.79,WSW,240,2.3,2.3,62,0.00,OVC,,0.03,0.0,WeatherDisplay:10.37,2013-01-01 08:20:00,
2013-01-01 03:25:00,40.2,28.2,29.79,West,270,0.0,0.0,62,0.01,RA,,0.04,0.0,WeatherDisplay:10.37,2013-01-01 08:25:00,
2013-01-01 03:30:00,40.1,28.5,29.78,WNW,289,2.3,2.6,63,0.01,RA,,0.04,0.0,WeatherDisplay:10.37,2013-01-01 08:30:00,
2013-01-01 03:35:00,40.1,28.5,29.78,WNW,298,6.9,6.9,63,0.01,OVC,,0.04,0.0,WeatherDisplay:10.37,2013-01-01 08:35:00,
2013-01-01 03:40:00,39.9,28.7,29.78,West,274,2.3,2.3,64,0.01,OVC,,0.04,0.0,WeatherDisplay:10.37,2013-01-01 08:40:00,
2013-01-01 03:45:00,39.9,28.7,29.78,West,270,1.1,1.1,64,0.01,OVC,,0.04,0.0,WeatherDisplay:10.37,2013-01-01 08:45:00,
2013-01-01 03:50:00,39.8,28.6,29.78,WNW,285,11.5,11.5,64,0.01,OVC,,0.04,0.0,WeatherDisplay:10.37,2013-01-01 08:50:00,
2013-01-01 03:55:00,39.8,28.6,29.78,WNW,292,4.6,4.6,64,0.01,OVC,,0.04,0.0,WeatherDisplay:10.37,2013-01-01 08:55:00,
2013-01-01 04:00:00,39.8,28.6,29.77,NNW,336,3.5,3.5,64,0.01,OVC,,0.04,0.0,WeatherDisplay:10.37,2013-01-01 09:00:00,
2013-01-01 04:05:00,39.6,28.8,29.77,WNW,284,0.0,0.0,65,0.01,OVC,,0.04,0.0,WeatherDisplay:10.37,2013-01-01 09:05:00,
2013-01-01 04:10:00,39.6,28.8,29.77,ENE,68,2.3,2.3,65,0.01,OVC,,0.04,0.0,WeatherDisplay:10.37,2013-01-01 09:10:00,
2013-01-01 04:15:00,39.5,28.7,29.77,West,274,2.3,0.0,65,0.01,OVC,,0.04,0.0,WeatherDisplay:10.37,2013-01-01 09:15:00,
2013-01-01 04:20:00,39.5,28.7,29.77,NW,305,2.3,2.3,65,0.01,OVC,,0.04,0.0,WeatherDisplay:10.37,2013-01-01 09:20:00,
2013-01-01 04:25:00,39.5,28.7,29.77,WNW,292,2.3,2.3,65,0.00,OVC,,0.04,0.0,WeatherDisplay:10.37,2013-01-01 09:25:00,
2013-01-01 04:30:00,39.3,28.5,29.76,NW,316,1.1,1.1,65,0.00,OVC,,0.04,0.0,WeatherDisplay:10.37,2013-01-01 09:30:00,
2013-01-01 04:35:00,39.3,28.5,29.76,WNW,288,1.1,1.1,65,0.00,OVC,,0.04,0.0,WeatherDisplay:10.37,2013-01-01 09:35:00,
2013-01-01 04:40:00,39.3,28.5,29.76,NW,313,0.0,0.0,65,0.00,OVC,,0.04,0.0,WeatherDisplay:10.37,2013-01-01 09:40:00,
2013-01-01 04:45:00,39.3,28.5,29.76,NNW,347,3.5,3.5,65,0.00,OVC,,0.04,0.0,WeatherDisplay:10.37,2013-01-01 09:45:00,
2013-01-01 04:50:00,39.3,28.5,29.76,NW,313,4.6,4.6,65,0.00,OVC,,0.04,0.0,WeatherDisplay:10.37,2013-01-01 09:50:00,
2013-01-01 04:55:00,39.2,28.8,29.76,South,169,1.1,1.1,66,0.00,OVC,,0.04,0.0,WeatherDisplay:10.37,2013-01-01 09:55:00,
2013-01-01 05:00:00,39.2,28.8,29.76,NW,315,1.1,1.1,66,0.00,OVC,,0.04,0.0,WeatherDisplay:10.37,2013-01-01 10:00:00,
2013-01-01 05:05:00,39.2,28.8,29.76,WNW,284,1.1,1.1,66,0.00,OVC,,0.04,0.0,WeatherDisplay:10.37,2013-01-01 10:05:00,
2013-01-01 05:10:00,39.2,28.8,29.76,NW,308,1.1,1.1,66,0.00,OVC,,0.04,0.0,WeatherDisplay:10.37,2013-01-01 10:10:00,
2013-01-01 05:15:00,39.2,28.8,29.77,WNW,295,0.0,0.3,66,0.00,OVC,,0.04,0.0,WeatherDisplay:10.37,2013-01-01 10:15:00,
2013-01-01 05:20:00,39.2,29.2,29.77,NW,308,3.5,3.5,67,0.00,OVC,,0.04,0.0,WeatherDisplay:10.37,2013-01-01 10:20:00,
2013-01-01 05:25:00,39.2,28.8,29.77,SSW,210,6.9,6.9,66,0.00,OVC,,0.04,0.0,WeatherDisplay:10.37,2013-01-01 10:25:00,
2013-01-01 05:30:00,39.2,28.8,29.76,NW,322,2.3,2.3,66,0.00,OVC,,0.04,0.0,WeatherDisplay:10.37,2013-01-01 10:30:00,
2013-01-01 05:35:00,39.2,28.8,29.76,WNW,296,2.3,2.3,66,0.00,OVC,,0.04,0.0,WeatherDisplay:10.37,2013-01-01 10:35:00,
2013-01-01 05:40:00,39.2,28.8,29.76,West,268,1.1,1.1,66,0.00,OVC,,0.04,0.0,WeatherDisplay:10.37,2013-01-01 10:40:00,
2013-01-01 05:45:00,39.1,28.7,29.77,NNW,339,1.1,1.1,66,0.00,OVC,,0.04,0.0,WeatherDisplay:10.37,2013-01-01 10:45:00,
2013-01-01 05:50:00,39.1,28.7,29.77,South,172,2.3,2.3,66,0.00,OVC,,0.04,0.0,WeatherDisplay:10.37,2013-01-01 10:50:00,
2013-01-01 05:55:00,39.1,28.7,29.77,NNW,336,1.0,0.0,66,0.00,OVC,,0.04,0.0,WeatherDisplay:10.37,2013-01-01 10:55:00,
2013-01-01 06:00:00,38.9,28.9,29.77,NW,312,0.0,0.0,67,0.00,OVC,,0.04,0.0,WeatherDisplay:10.37,2013-01-01 11:00:00,
2013-01-01 06:05:00,38.9,28.9,29.77,West,278,1.1,0.0,67,0.00,OVC,,0.04,0.0,WeatherDisplay:10.37,2013-01-01 11:05:00,
2013-01-01 06:10:00,38.8,28.8,29.77,WNW,291,0.0,0.0,67,0.00,OVC,,0.04,0.0,WeatherDisplay:10.37,2013-01-01 11:10:00,
2013-01-01 06:15:00,38.6,28.6,29.77,NW,315,1.1,1.1,67,0.00,OVC,,0.04,0.0,WeatherDisplay:10.37,2013-01-01 11:15:00,
2013-01-01 06:20:00,38.5,28.9,29.77,WNW,301,1.1,1.1,68,0.00,OVC,,0.04,0.0,WeatherDisplay:10.37,2013-01-01 11:20:00,
2013-01-01 06:25:00,38.5,28.9,29.77,NW,304,2.3,2.3,68,0.00,OVC,,0.04,0.0,WeatherDisplay:10.37,2013-01-01 11:25:00,
2013-01-01 06:30:00,38.3,28.7,29.78,WSW,258,3.5,0.0,68,0.00,OVC,,0.04,0.0,WeatherDisplay:10.37,2013-01-01 11:30:00,
2013-01-01 06:35:00,38.3,28.7,29.78,WNW,291,2.3,2.3,68,0.00,OVC,,0.04,0.0,WeatherDisplay:10.37,2013-01-01 11:35:00,
2013-01-01 06:40:00,38.2,28.6,29.78,WNW,302,3.5,3.5,68,0.00,OVC,,0.04,0.0,WeatherDisplay:10.37,2013-01-01 11:40:00,
2013-01-01 06:45:00,38.2,28.6,29.78,WNW,296,5.8,5.8,68,0.00,OVC,,0.04,0.0,WeatherDisplay:10.37,2013-01-01 11:45:00,
2013-01-01 06:50:00,38.2,28.6,29.78,WNW,299,4.6,4.6,68,0.00,OVC,,0.04,0.0,WeatherDisplay:10.37,2013-01-01 11:50:00,
2013-01-01 06:55:00,38.3,28.7,29.78,NW,319,3.5,0.0,68,0.00,OVC,,0.04,0.0,WeatherDisplay:10.37,2013-01-01 11:55:00,
2013-01-01 07:00:00,38.3,28.7,29.78,NW,304,5.8,5.8,68,0.00,OVC,,0.04,0.0,WeatherDisplay:10.37,2013-01-01 12:00:00,
2013-01-01 07:05:00,38.3,28.7,29.78,WNW,299,2.3,0.0,68,0.00,OVC,,0.04,0.0,WeatherDisplay:10.37,2013-01-01 12:05:00,
2013-01-01 07:10:00,38.3,28.7,29.78,WNW,298,0.0,0.0,68,0.00,OVC,,0.04,0.0,WeatherDisplay:10.37,2013-01-01 12:10:00,
2013-01-01 07:15:00,38.2,28.6,29.78,WNW,289,2.0,2.0,68,0.00,OVC,,0.04,0.0,WeatherDisplay:10.37,2013-01-01 12:15:00,
2013-01-01 07:20:00,38.2,28.6,29.78,NW,308,1.0,1.0,68,0.00,OVC,,0.04,0.0,WeatherDisplay:10.37,2013-01-01 12:20:00,
2013-01-01 07:25:00,38.2,28.9,29.78,WSW,251,0.0,0.1,69,0.00,OVC,,0.04,0.0,WeatherDisplay:10.37,2013-01-01 12:25:00,
2013-01-01 07:30:00,38.2,28.9,29.79,WNW,301,2.3,2.3,69,0.00,OVC,,0.04,0.0,WeatherDisplay:10.37,2013-01-01 12:30:00,
2013-01-01 07:35:00,38.2,28.9,29.79,NW,309,1.1,1.1,69,0.00,OVC,,0.04,0.0,WeatherDisplay:10.37,2013-01-01 12:35:00,
2013-01-01 07:40:00,38.0,28.7,29.79,NW,306,2.0,2.0,69,0.00,OVC,,0.04,7.0,WeatherDisplay:10.37,2013-01-01 12:40:00,
2013-01-01 07:45:00,38.0,28.7,29.78,NNW,337,1.1,1.1,69,0.00,OVC,,0.04,12.0,WeatherDisplay:10.37,2013-01-01 12:45:00,
2013-01-01 07:50:00,38.0,28.4,29.78,WNW,294,2.3,2.3,68,0.00,OVC,,0.05,12.0,WeatherDisplay:10.37,2013-01-01 12:50:00,
2013-01-01 07:55:00,37.9,28.3,29.78,WNW,294,3.5,3.5,68,0.01,RA,,0.05,21.0,WeatherDisplay:10.37,2013-01-01 12:55:00,
2013-01-01 08:00:00,37.9,28.3,29.78,NNW,330,3.5,3.5,68,0.01,RA,,0.05,21.0,WeatherDisplay:10.37,2013-01-01 13:00:00,
2013-01-01 08:05:00,37.9,28.3,29.78,West,268,3.0,3.0,68,0.01,OVC,,0.05,14.0,WeatherDisplay:10.37,2013-01-01 13:05:00,
2013-01-01 08:10:00,37.9,27.9,29.78,WNW,294,3.5,3.5,67,0.01,OVC,,0.05,18.0,WeatherDisplay:10.37,2013-01-01 13:10:00,
2013-01-01 08:15:00,37.9,27.9,29.79,WNW,296,4.6,4.6,67,0.01,OVC,,0.05,18.0,WeatherDisplay:10.37,2013-01-01 13:15:00,
2013-01-01 08:20:00,38.0,28.0,29.79,ESE,119,1.1,1.1,67,0.01,OVC,,0.05,19.0,WeatherDisplay:10.37,2013-01-01 13:20:00,
2013-01-01 08:25:00,38.0,28.0,29.79,West,274,1.1,1.1,67,0.01,OVC,,0.05,28.0,WeatherDisplay:10.37,2013-01-01 13:25:00,
2013-01-01 08:30:00,38.0,28.0,29.79,NW,315,0.0,1.3,67,0.01,OVC,,0.05,37.0,WeatherDisplay:10.37,2013-01-01 13:30:00,
2013-01-01 08:35:00,38.0,28.0,29.79,WSW,258,1.1,0.0,67,0.01,OVC,,0.05,37.0,WeatherDisplay:10.37,2013-01-01 13:35:00,
2013-01-01 08:40:00,38.0,28.0,29.79,NW,304,1.0,1.0,67,0.01,OVC,,0.05,40.0,WeatherDisplay:10.37,2013-01-01 13:40:00,
2013-01-01 08:46:00,38.2,28.2,29.79,NNW,330,3.0,3.0,67,0.01,OVC,,0.05,44.0,WeatherDisplay:10.37,2013-01-01 13:46:00,
2013-01-01 08:51:00,38.2,28.2,29.79,WNW,295,2.3,2.3,67,0.00,OVC,,0.05,49.0,WeatherDisplay:10.37,2013-01-01 13:51:00,
2013-01-01 08:56:00,38.3,27.9,29.79,West,261,1.1,0.0,66,0.00,OVC,,0.05,51.0,WeatherDisplay:10.37,2013-01-01 13:56:00,
2013-01-01 09:01:00,38.3,27.9,29.79,NE,48,1.1,0.0,66,0.00,OVC,,0.05,42.0,WeatherDisplay:10.37,2013-01-01 14:01:00,
2013-01-01 09:06:00,38.3,27.9,29.79,West,280,2.3,2.3,66,0.00,OVC,,0.05,40.0,WeatherDisplay:10.37,2013-01-01 14:06:00,
2013-01-01 09:11:00,38.5,27.7,29.79,NW,323,2.3,0.0,65,0.00,OVC,,0.05,48.0,WeatherDisplay:10.37,2013-01-01 14:11:00,
2013-01-01 09:16:00,38.5,27.7,29.79,NW,312,6.9,6.9,65,0.00,OVC,,0.05,56.0,WeatherDisplay:10.37,2013-01-01 14:16:00,
2013-01-01 09:22:00,38.5,27.7,29.79,WNW,282,1.1,1.1,65,0.00,OVC,,0.05,62.0,WeatherDisplay:10.37,2013-01-01 14:22:00,
2013-01-01 09:27:00,38.6,27.8,29.79,WNW,296,4.6,4.6,65,0.00,OVC,,0.05,37.0,WeatherDisplay:10.37,2013-01-01 14:27:00,
2013-01-01 09:32:00,38.6,27.8,29.80,NW,305,1.1,0.0,65,0.00,OVC,,0.05,33.0,WeatherDisplay:10.37,2013-01-01 14:32:00,
2013-01-01 09:37:00,38.6,27.8,29.80,NW,316,3.5,0.0,65,0.00,OVC,,0.05,33.0,WeatherDisplay:10.37,2013-01-01 14:37:00,
2013-01-01 09:42:00,38.6,27.8,29.80,NW,323,1.1,0.0,65,0.00,OVC,,0.05,35.0,WeatherDisplay:10.37,2013-01-01 14:42:00,
2013-01-01 09:47:00,38.6,27.8,29.79,West,281,1.0,1.3,65,0.00,OVC,,0.05,44.0,WeatherDisplay:10.37,2013-01-01 14:47:00,
2013-01-01 09:52:00,38.6,27.8,29.79,SW,234,0.0,0.1,65,0.00,OVC,,0.05,44.0,WeatherDisplay:10.37,2013-01-01 14:52:00,
2013-01-01 09:57:00,38.6,27.8,29.79,WNW,295,3.5,3.5,65,0.00,OVC,,0.05,40.0,WeatherDisplay:10.37,2013-01-01 14:57:00,
2013-01-01 10:02:00,38.6,27.8,29.80,WNW,292,2.3,2.3,65,0.00,OVC,,0.05,33.0,WeatherDisplay:10.37,2013-01-01 15:02:00,
2013-01-01 10:07:00,38.8,28.0,29.80,NNW,346,0.0,0.2,65,0.00,OVC,,0.05,35.0,WeatherDisplay:10.37,2013-01-01 15:07:00,
2013-01-01 10:12:00,38.8,28.0,29.80,NW,306,2.3,2.3,65,0.00,OVC,,0.05,40.0,WeatherDisplay:10.37,2013-01-01 15:12:00,
2013-01-01 10:17:00,38.8,28.0,29.80,WNW,296,1.1,0.0,65,0.00,OVC,,0.05,60.0,WeatherDisplay:10.37,2013-01-01 15:17:00,
2013-01-01 10:22:00,38.8,28.0,29.80,WNW,301,1.1,1.1,65,0.00,OVC,,0.05,69.0,WeatherDisplay:10.37,2013-01-01 15:22:00,
2013-01-01 10:27:00,38.8,28.0,29.80,West,274,1.0,1.0,65,0.00,OVC,,0.05,69.0,WeatherDisplay:10.37,2013-01-01 15:27:00,
2013-01-01 10:32:00,38.9,28.1,29.80,NW,304,2.3,2.3,65,0.00,OVC,,0.05,76.0,WeatherDisplay:10.37,2013-01-01 15:32:00,
2013-01-01 10:37:00,38.9,28.1,29.80,WNW,298,2.3,2.3,65,0.00,OVC,,0.05,90.0,WeatherDisplay:10.37,2013-01-01 15:37:00,
2013-01-01 10:42:00,39.1,28.3,29.80,WSW,237,1.1,1.1,65,0.00,OVC,,0.05,90.0,WeatherDisplay:10.37,2013-01-01 15:42:00,
2013-01-01 10:47:00,39.1,27.9,29.80,WSW,243,0.0,0.0,64,0.00,OVC,,0.05,70.0,WeatherDisplay:10.37,2013-01-01 15:47:00,
2013-01-01 10:52:00,39.1,27.9,29.80,WNW,287,1.1,0.0,64,0.00,OVC,,0.05,62.0,WeatherDisplay:10.37,2013-01-01 15:52:00,
2013-01-01 10:57:00,39.2,28.4,29.80,NW,323,2.0,2.0,65,0.00,OVC,,0.05,53.0,WeatherDisplay:10.37,2013-01-01 15:57:00,
2013-01-01 11:02:00,39.2,28.4,29.79,WNW,285,2.3,2.3,65,0.00,OVC,,0.05,51.0,WeatherDisplay:10.37,2013-01-01 16:02:00,
2013-01-01 11:07:00,39.2,28.0,29.79,WNW,282,1.1,0.0,64,0.00,OVC,,0.05,90.0,WeatherDisplay:10.37,2013-01-01 16:07:00,
2013-01-01 11:12:00,39.2,28.0,29.79,SW,232,1.0,1.0,64,0.00,OVC,,0.05,95.0,WeatherDisplay:10.37,2013-01-01 16:12:00,
2013-01-01 11:17:00,39.2,28.4,29.79,WNW,287,1.1,1.1,65,0.00,OVC,,0.05,70.0,WeatherDisplay:10.37,2013-01-01 16:17:00,
2013-01-01 11:22:00,39.2,28.4,29.79,SSW,205,2.3,2.3,65,0.00,OVC,,0.05,76.0,WeatherDisplay:10.37,2013-01-01 16:22:00,
2013-01-01 11:27:00,39.3,28.1,29.79,NW,309,1.0,0.0,64,0.00,OVC,,0.05,88.0,WeatherDisplay:10.37,2013-01-01 16:27:00,
2013-01-01 11:32:00,39.3,28.1,29.77,NW,316,2.0,2.0,64,0.00,OVC,,0.05,74.0,WeatherDisplay:10.37,2013-01-01 16:32:00,
2013-01-01 11:37:00,39.3,28.1,29.77,WNW,288,4.6,4.6,64,0.00,OVC,,0.05,58.0,WeatherDisplay:10.37,2013-01-01 16:37:00,
2013-01-01 11:42:00,39.3,28.1,29.77,WNW,282,6.9,6.9,64,0.00,OVC,,0.05,62.0,WeatherDisplay:10.37,2013-01-01 16:42:00,
2013-01-01 11:47:00,39.3,28.1,29.76,West,265,0.0,0.0,64,0.00,OVC,,0.05,65.0,WeatherDisplay:10.37,2013-01-01 16:47:00,
2013-01-01 11:52:00,39.3,28.1,29.76,West,281,3.5,3.5,64,0.00,OVC,,0.05,58.0,WeatherDisplay:10.37,2013-01-01 16:52:00,
2013-01-01 11:57:00,39.3,28.1,29.76,WNW,296,1.1,1.1,64,0.00,OVC,,0.05,67.0,WeatherDisplay:10.37,2013-01-01 16:57:00,
2013-01-01 12:02:00,39.3,28.1,29.76,West,280,1.1,1.6,64,0.00,OVC,,0.05,109.0,WeatherDisplay:10.37,2013-01-01 17:02:00,
2013-01-01 12:07:00,39.3,28.1,29.76,WNW,299,8.1,8.1,64,0.00,OVC,,0.05,79.0,WeatherDisplay:10.37,2013-01-01 17:07:00,
2013-01-01 12:12:00,39.3,28.1,29.76,NW,312,1.1,0.0,64,0.00,OVC,,0.05,88.0,WeatherDisplay:10.37,2013-01-01 17:12:00,
2013-01-01 12:17:00,39.3,28.5,29.76,WNW,291,3.5,3.5,65,0.00,OVC,,0.05,84.0,WeatherDisplay:10.37,2013-01-01 17:17:00,
2013-01-01 12:22:00,39.5,28.7,29.76,West,267,1.1,1.1,65,0.00,OVC,,0.05,79.0,WeatherDisplay:10.37,2013-01-01 17:22:00,
2013-01-01 12:27:00,39.5,28.3,29.76,SW,236,1.1,1.1,64,0.00,OVC,,0.05,63.0,WeatherDisplay:10.37,2013-01-01 17:27:00,
2013-01-01 12:32:00,39.5,28.3,29.75,WNW,301,2.3,2.3,64,0.00,OVC,,0.05,79.0,WeatherDisplay:10.37,2013-01-01 17:32:00,
2013-01-01 12:37:00,39.5,28.3,29.75,North,359,3.5,3.5,64,0.00,OVC,,0.05,72.0,WeatherDisplay:10.37,2013-01-01 17:37:00,
2013-01-01 12:42:00,39.3,28.1,29.75,SW,233,2.3,2.3,64,0.00,OVC,,0.05,76.0,WeatherDisplay:10.37,2013-01-01 17:42:00,
2013-01-01 12:47:00,39.3,28.1,29.75,WNW,285,3.5,3.5,64,0.00,OVC,,0.05,77.0,WeatherDisplay:10.37,2013-01-01 17:47:00,
2013-01-01 12:52:00,39.3,28.1,29.75,NW,305,2.3,2.3,64,0.00,OVC,,0.05,69.0,WeatherDisplay:10.37,2013-01-01 17:52:00,
2013-01-01 12:57:00,39.3,28.1,29.75,NW,312,4.6,4.6,64,0.00,OVC,,0.05,65.0,WeatherDisplay:10.37,2013-01-01 17:57:00,
2013-01-01 13:02:00,39.3,28.1,29.75,WNW,295,3.0,3.0,64,0.00,OVC,,0.05,56.0,WeatherDisplay:10.37,2013-01-01 18:02:00,
2013-01-01 13:07:00,39.3,28.1,29.75,WNW,289,6.9,0.0,64,0.00,OVC,,0.05,56.0,WeatherDisplay:10.37,2013-01-01 18:07:00,
2013-01-01 13:12:00,39.2,27.7,29.75,NW,322,3.5,3.5,63,0.00,OVC,,0.05,69.0,WeatherDisplay:10.37,2013-01-01 18:12:00,
2013-01-01 13:17:00,39.2,28.0,29.73,WNW,294,3.5,3.5,64,0.00,OVC,,0.05,81.0,WeatherDisplay:10.37,2013-01-01 18:17:00,
2013-01-01 13:22:00,39.2,28.0,29.73,NNW,342,2.3,2.3,64,0.00,OVC,,0.05,83.0,WeatherDisplay:10.37,2013-01-01 18:22:00,
2013-01-01 13:27:00,39.2,27.7,29.73,NNW,342,2.3,2.3,63,0.00,OVC,,0.05,69.0,WeatherDisplay:10.37,2013-01-01 18:27:00,
2013-01-01 13:32:00,39.2,27.7,29.72,West,280,3.5,3.5,63,0.00,OVC,,0.05,70.0,WeatherDisplay:10.37,2013-01-01 18:32:00,
2013-01-01 13:37:00,39.2,28.0,29.72,NNW,328,3.0,3.0,64,0.00,OVC,,0.05,72.0,WeatherDisplay:10.37,2013-01-01 18:37:00,
2013-01-01 13:42:00,39.2,27.7,29.72,NW,304,5.8,5.8,63,0.00,OVC,,0.05,65.0,WeatherDisplay:10.37,2013-01-01 18:42:00,
2013-01-01 13:47:00,39.2,27.7,29.72,West,272,3.0,3.0,63,0.00,OVC,,0.05,72.0,WeatherDisplay:10.37,2013-01-01 18:47:00,
2013-01-01 13:52:00,39.2,27.7,29.72,SE,138,3.5,0.0,63,0.00,OVC,,0.05,62.0,WeatherDisplay:10.37,2013-01-01 18:52:00,
2013-01-01 13:57:00,39.1,27.6,29.72,West,261,6.9,6.9,63,0.00,OVC,,0.05,69.0,WeatherDisplay:10.37,2013-01-01 18:57:00,
2013-01-01 14:02:00,39.1,27.6,29.72,WNW,301,3.5,3.5,63,0.00,OVC,,0.05,60.0,WeatherDisplay:10.37,2013-01-01 19:02:00,
2013-01-01 14:07:00,39.1,27.6,29.72,West,271,6.9,6.9,63,0.00,OVC,,0.05,65.0,WeatherDisplay:10.37,2013-01-01 19:07:00,
2013-01-01 14:12:00,39.1,27.6,29.72,NNW,330,3.5,3.5,63,0.00,OVC,,0.05,56.0,WeatherDisplay:10.37,2013-01-01 19:12:00,
2013-01-01 14:17:00,38.9,27.4,29.72,WSW,237,0.0,0.1,63,0.00,OVC,,0.05,60.0,WeatherDisplay:10.37,2013-01-01 19:17:00,
2013-01-01 14:22:00,38.9,27.8,29.72,NW,304,2.3,2.3,64,0.00,OVC,,0.05,60.0,WeatherDisplay:10.37,2013-01-01 19:22:00,
2013-01-01 14:27:00,38.9,27.4,29.72,South,182,3.5,3.5,63,0.00,OVC,,0.05,74.0,WeatherDisplay:10.37,2013-01-01 19:27:00,
2013-01-01 14:32:00,38.9,27.4,29.72,North,359,3.0,3.0,63,0.00,OVC,,0.05,70.0,WeatherDisplay:10.37,2013-01-01 19:32:00,
2013-01-01 14:37:00,38.9,27.4,29.72,NNW,333,3.5,3.5,63,0.00,OVC,,0.05,70.0,WeatherDisplay:10.37,2013-01-01 19:37:00,
2013-01-01 14:42:00,38.9,27.4,29.72,WNW,298,2.3,2.3,63,0.00,OVC,,0.05,72.0,WeatherDisplay:10.37,2013-01-01 19:42:00,
2013-01-01 14:47:00,38.9,27.4,29.72,WNW,301,1.1,1.1,63,0.00,OVC,,0.05,58.0,WeatherDisplay:10.37,2013-01-01 19:47:00,
2013-01-01 14:52:00,38.9,27.8,29.72,SW,229,2.3,2.3,64,0.00,OVC,,0.05,51.0,WeatherDisplay:10.37,2013-01-01 19:52:00,
2013-01-01 14:57:00,38.9,27.8,29.72,WNW,296,0.0,0.3,64,0.00,OVC,,0.05,53.0,WeatherDisplay:10.37,2013-01-01 19:57:00,
2013-01-01 15:02:00,38.9,27.4,29.73,NW,304,3.5,3.5,63,0.00,OVC,,0.05,48.0,WeatherDisplay:10.37,2013-01-01 20:02:00,
2013-01-01 15:07:00,38.9,27.8,29.73,NW,325,1.1,1.1,64,0.00,OVC,,0.05,40.0,WeatherDisplay:10.37,2013-01-01 20:07:00,
2013-01-01 15:12:00,38.9,27.8,29.73,SW,226,2.3,2.3,64,0.00,OVC,,0.05,37.0,WeatherDisplay:10.37,2013-01-01 20:12:00,
2013-01-01 15:17:00,38.9,27.8,29.74,NW,322,3.5,3.5,64,0.00,OVC,,0.05,30.0,WeatherDisplay:10.37,2013-01-01 20:17:00,
2013-01-01 15:22:00,38.9,27.8,29.74,WNW,292,0.0,0.1,64,0.00,OVC,,0.05,19.0,WeatherDisplay:10.37,2013-01-01 20:22:00,
2013-01-01 15:27:00,38.8,27.7,29.74,NW,323,2.3,2.3,64,0.00,OVC,,0.05,16.0,WeatherDisplay:10.37,2013-01-01 20:27:00,
2013-01-01 15:32:00,38.8,27.7,29.75,NW,309,1.1,1.1,64,0.00,OVC,,0.05,11.0,WeatherDisplay:10.37,2013-01-01 20:32:00,
2013-01-01 15:37:00,38.8,27.7,29.75,WNW,301,1.0,0.0,64,0.00,OVC,,0.05,11.0,WeatherDisplay:10.37,2013-01-01 20:37:00,
2013-01-01 15:42:00,38.8,28.0,29.75,NW,312,1.1,1.1,65,0.00,OVC,,0.05,7.0,WeatherDisplay:10.37,2013-01-01 20:42:00,
2013-01-01 15:47:00,38.8,28.0,29.75,North,0,0.0,0.0,65,0.00,OVC,,0.05,7.0,WeatherDisplay:10.37,2013-01-01 20:47:00,
2013-01-01 15:52:00,38.6,27.8,29.75,NW,312,6.9,6.9,65,0.00,OVC,,0.05,5.0,WeatherDisplay:10.37,2013-01-01 20:52:00,
2013-01-01 15:57:00,38.6,27.8,29.75,NNW,343,0.0,0.0,65,0.00,OVC,,0.05,5.0,WeatherDisplay:10.37,2013-01-01 20:57:00,
2013-01-01 16:02:00,38.6,27.8,29.76,WNW,295,1.1,1.1,65,0.00,OVC,,0.05,0.0,WeatherDisplay:10.37,2013-01-01 21:02:00,
2013-01-01 16:07:00,38.6,27.8,29.76,NW,316,0.0,0.0,65,0.00,OVC,,0.05,5.0,WeatherDisplay:10.37,2013-01-01 21:07:00,
2013-01-01 16:12:00,38.5,27.7,29.76,West,271,2.3,0.0,65,0.00,OVC,,0.05,5.0,WeatherDisplay:10.37,2013-01-01 21:12:00,
2013-01-01 16:17:00,38.5,27.7,29.75,WNW,301,2.3,2.3,65,0.00,OVC,,0.05,0.0,WeatherDisplay:10.37,2013-01-01 21:17:00,
2013-01-01 16:22:00,38.5,27.7,29.75,WNW,298,0.0,0.1,65,0.00,OVC,,0.05,0.0,WeatherDisplay:10.37,2013-01-01 21:22:00,
2013-01-01 16:27:00,38.5,27.7,29.75,West,281,1.1,1.1,65,0.00,OVC,,0.05,0.0,WeatherDisplay:10.37,2013-01-01 21:27:00,
2013-01-01 16:32:00,38.3,27.2,29.76,North,354,6.9,6.9,64,0.00,OVC,,0.05,0.0,WeatherDisplay:10.37,2013-01-01 21:32:00,
2013-01-01 16:37:00,38.3,27.2,29.76,WNW,301,2.0,2.0,64,0.00,OVC,,0.05,0.0,WeatherDisplay:10.37,2013-01-01 21:37:00,
2013-01-01 16:42:00,38.3,26.4,29.76,SW,227,2.3,2.3,62,0.00,OVC,,0.05,0.0,WeatherDisplay:10.37,2013-01-01 21:42:00,
2013-01-01 16:47:00,38.3,26.4,29.76,WSW,240,1.1,1.1,62,0.00,OVC,,0.05,0.0,WeatherDisplay:10.37,2013-01-01 21:47:00,
2013-01-01 16:52:00,38.2,26.3,29.76,NW,326,3.5,3.5,62,0.00,OVC,,0.05,0.0,WeatherDisplay:10.37,2013-01-01 21:52:00,
2013-01-01 16:57:00,38.2,26.3,29.76,NNW,339,5.0,5.0,62,0.00,OVC,,0.05,0.0,WeatherDisplay:10.37,2013-01-01 21:57:00,
2013-01-01 17:02:00,38.0,26.1,29.77,North,0,3.5,3.5,62,0.00,OVC,,0.05,0.0,WeatherDisplay:10.37,2013-01-01 22:02:00,
2013-01-01 17:07:00,38.0,26.1,29.77,NNW,342,2.3,2.3,62,0.00,OVC,,0.05,0.0,WeatherDisplay:10.37,2013-01-01 22:07:00,
2013-01-01 17:12:00,37.9,26.0,29.77,NNW,330,1.1,0.0,62,0.00,OVC,,0.05,0.0,WeatherDisplay:10.37,2013-01-01 22:12:00,
2013-01-01 17:17:00,37.9,26.0,29.76,WNW,302,3.5,3.5,62,0.00,OVC,,0.05,0.0,WeatherDisplay:10.37,2013-01-01 22:17:00,
2013-01-01 17:22:00,37.8,25.9,29.76,WNW,302,5.8,0.0,62,0.00,OVC,,0.05,0.0,WeatherDisplay:10.37,2013-01-01 22:22:00,
2013-01-01 17:27:00,37.8,25.9,29.76,NW,312,4.6,4.6,62,0.00,OVC,,0.05,0.0,WeatherDisplay:10.37,2013-01-01 22:27:00,
2013-01-01 17:32:00,37.8,25.9,29.78,NW,320,4.6,4.6,62,0.00,OVC,,0.05,0.0,WeatherDisplay:10.37,2013-01-01 22:32:00,
2013-01-01 17:37:00,37.8,25.9,29.78,NW,316,6.9,0.0,62,0.00,OVC,,0.05,0.0,WeatherDisplay:10.37,2013-01-01 22:37:00,
2013-01-01 17:42:00,37.6,25.7,29.78,NW,316,1.1,1.1,62,0.00,OVC,,0.05,0.0,WeatherDisplay:10.37,2013-01-01 22:42:00,
2013-01-01 17:47:00,37.6,25.7,29.78,WNW,285,2.3,0.0,62,0.00,OVC,,0.05,0.0,WeatherDisplay:10.37,2013-01-01 22:47:00,
2013-01-01 17:52:00,37.5,25.7,29.78,WSW,250,5.0,5.0,62,0.00,OVC,,0.05,0.0,WeatherDisplay:10.37,2013-01-01 22:52:00,
2013-01-01 17:57:00,37.5,26.0,29.78,WSW,237,1.1,1.1,63,0.00,OVC,,0.05,0.0,WeatherDisplay:10.37,2013-01-01 22:57:00,
2013-01-01 18:02:00,37.3,25.8,29.78,NW,325,3.5,3.5,63,0.00,OVC,,0.05,0.0,WeatherDisplay:10.37,2013-01-01 23:02:00,
2013-01-01 18:07:00,37.3,25.8,29.78,NNW,343,3.5,0.0,63,0.00,OVC,,0.05,0.0,WeatherDisplay:10.37,2013-01-01 23:07:00,
2013-01-01 18:12:00,37.2,26.1,29.78,North,0,3.5,3.5,64,0.00,OVC,,0.05,0.0,WeatherDisplay:10.37,2013-01-01 23:12:00,
2013-01-01 18:17:00,37.2,26.5,29.80,West,277,0.0,1.0,65,0.00,OVC,,0.05,0.0,WeatherDisplay:10.37,2013-01-01 23:17:00,
2013-01-01 18:22:00,37.0,26.7,29.80,NW,323,3.5,3.5,66,0.00,OVC,,0.05,0.0,WeatherDisplay:10.37,2013-01-01 23:22:00,
2013-01-01 18:27:00,36.8,26.5,29.80,NW,312,3.5,0.0,66,0.00,OVC,,0.05,0.0,WeatherDisplay:10.37,2013-01-01 23:27:00,
2013-01-01 18:32:00,36.6,26.7,29.80,NNW,346,6.9,6.9,67,0.00,OVC,,0.05,0.0,WeatherDisplay:10.37,2013-01-01 23:32:00,
2013-01-01 18:37:00,36.5,26.6,29.80,WNW,298,3.5,3.5,67,0.00,OVC,,0.05,0.0,WeatherDisplay:10.37,2013-01-01 23:37:00,
2013-01-01 18:42:00,36.3,26.4,29.80,WSW,253,2.3,2.3,67,0.00,OVC,,0.05,0.0,WeatherDisplay:10.37,2013-01-01 23:42:00,
2013-01-01 18:47:00,36.3,26.4,29.80,NW,322,1.1,0.0,67,0.00,OVC,,0.05,0.0,WeatherDisplay:10.37,2013-01-01 23:47:00,
2013-01-01 18:52:00,36.2,26.3,29.80,WNW,287,6.0,6.0,67,0.00,OVC,,0.05,0.0,WeatherDisplay:10.37,2013-01-01 23:52:00,
2013-01-01 18:57:00,36.0,25.7,29.80,NNE,28,2.0,2.0,66,0.00,OVC,,0.05,0.0,WeatherDisplay:10.37,2013-01-01 23:57:00,
2013-01-01 19:02:00,36.0,25.7,29.80,NW,308,1.1,1.1,66,0.00,OVC,,0.05,0.0,WeatherDisplay:10.37,2013-01-02 00:02:00,
2013-01-01 19:07:00,35.9,25.6,29.80,WNW,298,8.0,8.0,66,0.00,OVC,,0.05,0.0,WeatherDisplay:10.37,2013-01-02 00:07:00,
2013-01-01 19:12:00,35.8,24.4,29.80,NNW,339,5.8,5.8,63,0.00,OVC,,0.05,0.0,WeatherDisplay:10.37,2013-01-02 00:12:00,
2013-01-01 19:17:00,35.8,24.0,29.81,WNW,288,3.5,0.0,62,0.00,OVC,,0.05,0.0,WeatherDisplay:10.37,2013-01-02 00:17:00,
2013-01-01 19:22:00,35.6,23.9,29.81,WNW,292,1.1,1.1,62,0.00,OVC,,0.05,0.0,WeatherDisplay:10.37,2013-01-02 00:22:00,
2013-01-01 19:27:00,35.6,23.9,29.81,NNW,339,2.3,2.3,62,0.00,OVC,,0.05,0.0,WeatherDisplay:10.37,2013-01-02 00:27:00,
2013-01-01 19:32:00,35.5,23.4,29.82,WNW,295,3.5,3.5,61,0.00,OVC,,0.05,0.0,WeatherDisplay:10.37,2013-01-02 00:32:00,
2013-01-01 19:37:00,35.5,23.8,29.82,NNW,343,1.1,0.0,62,0.00,OVC,,0.05,0.0,WeatherDisplay:10.37,2013-01-02 00:37:00,
2013-01-01 19:42:00,35.5,23.8,29.82,NW,322,2.0,2.0,62,0.00,OVC,,0.05,0.0,WeatherDisplay:10.37,2013-01-02 00:42:00,
2013-01-01 19:47:00,35.3,23.6,29.82,NNW,339,1.1,1.1,62,0.00,OVC,,0.05,0.0,WeatherDisplay:10.37,2013-01-02 00:47:00,
2013-01-01 19:52:00,35.3,24.0,29.82,NW,315,1.1,1.1,63,0.00,OVC,,0.05,0.0,WeatherDisplay:10.37,2013-01-02 00:52:00,
2013-01-01 19:57:00,35.2,23.9,29.82,NNW,339,3.5,0.0,63,0.00,OVC,,0.05,0.0,WeatherDisplay:10.37,2013-01-02 00:57:00,
2013-01-01 20:02:00,35.2,23.9,29.82,NW,315,0.0,0.0,63,0.00,OVC,,0.05,0.0,WeatherDisplay:10.37,2013-01-02 01:02:00,
2013-01-01 20:07:00,35.0,23.7,29.82,NNW,340,4.6,4.6,63,0.00,OVC,,0.05,0.0,WeatherDisplay:10.37,2013-01-02 01:07:00,
2013-01-01 20:12:00,34.9,23.9,29.82,ENE,61,1.1,1.1,64,0.00,OVC,,0.05,0.0,WeatherDisplay:10.37,2013-01-02 01:12:00,
2013-01-01 20:17:00,34.7,23.4,29.82,NNW,339,4.6,4.6,63,0.00,OVC,,0.05,0.0,WeatherDisplay:10.37,2013-01-02 01:17:00,
2013-01-01 20:22:00,34.6,22.9,29.82,NNW,347,3.5,3.5,62,0.00,OVC,,0.05,0.0,WeatherDisplay:10.37,2013-01-02 01:22:00,
2013-01-01 20:27:00,34.4,22.7,29.82,NNW,342,3.5,3.5,62,0.00,OVC,,0.05,0.0,WeatherDisplay:10.37,2013-01-02 01:27:00,
2013-01-01 20:32:00,34.1,22.0,29.82,NNW,328,5.8,5.8,61,0.00,OVC,,0.05,0.0,WeatherDisplay:10.37,2013-01-02 01:32:00,
2013-01-01 20:37:00,34.0,22.0,29.82,West,264,3.5,3.5,61,0.00,OVC,,0.05,0.0,WeatherDisplay:10.37,2013-01-02 01:37:00,
2013-01-01 20:42:00,34.0,22.0,29.82,WNW,301,2.3,2.3,61,0.00,OVC,,0.05,0.0,WeatherDisplay:10.37,2013-01-02 01:42:00,
2013-01-01 20:47:00,33.8,21.8,29.83,NNW,340,3.5,3.5,61,0.00,OVC,,0.05,0.0,WeatherDisplay:10.37,2013-01-02 01:47:00,
2013-01-01 20:52:00,33.7,22.1,29.83,NNW,337,2.3,2.3,62,0.00,OVC,,0.05,0.0,WeatherDisplay:10.37,2013-01-02 01:52:00,
2013-01-01 20:57:00,33.7,22.1,29.83,NW,319,2.3,2.3,62,0.00,OVC,,0.05,0.0,WeatherDisplay:10.37,2013-01-02 01:57:00,
2013-01-01 21:02:00,33.5,21.9,29.83,North,353,1.1,0.0,62,0.00,OVC,,0.05,0.0,WeatherDisplay:10.37,2013-01-02 02:02:00,
2013-01-01 21:07:00,33.5,21.9,29.83,NW,319,1.1,0.0,62,0.00,OVC,,0.05,0.0,WeatherDisplay:10.37,2013-01-02 02:07:00,
2013-01-01 21:12:00,33.4,21.8,29.83,NNW,337,2.3,2.3,62,0.00,OVC,,0.05,0.0,WeatherDisplay:10.37,2013-01-02 02:12:00,
2013-01-01 21:17:00,33.4,21.8,29.82,WNW,294,1.1,1.1,62,0.00,OVC,,0.05,0.0,WeatherDisplay:10.37,2013-01-02 02:17:00,
2013-01-01 21:22:00,33.2,21.6,29.82,North,0,0.0,0.1,62,0.00,OVC,,0.05,0.0,WeatherDisplay:10.37,2013-01-02 02:22:00,
2013-01-01 21:27:00,33.1,21.1,29.82,NNW,332,5.0,5.0,61,0.00,OVC,,0.05,0.0,WeatherDisplay:10.37,2013-01-02 02:27:00,
2013-01-01 21:32:00,33.1,20.7,29.83,NNW,346,4.0,4.0,60,0.00,OVC,,0.05,0.0,WeatherDisplay:10.37,2013-01-02 02:32:00,
2013-01-01 21:37:00,33.1,20.7,29.83,NW,325,1.1,1.1,60,0.00,OVC,,0.05,0.0,WeatherDisplay:10.37,2013-01-02 02:37:00,
2013-01-01 21:42:00,33.1,20.7,29.83,North,0,0.0,0.0,60,0.00,OVC,,0.05,0.0,WeatherDisplay:10.37,2013-01-02 02:42:00,
2013-01-01 21:47:00,33.1,20.3,29.83,NNW,336,5.0,5.0,59,0.00,OVC,,0.05,0.0,WeatherDisplay:10.37,2013-01-02 02:47:00,
2013-01-01 21:52:00,32.9,20.1,29.83,NNW,344,2.0,2.0,59,0.00,OVC,,0.05,0.0,WeatherDisplay:10.37,2013-01-02 02:52:00,
2013-01-01 21:57:00,32.9,20.1,29.83,NNW,340,2.3,0.0,59,0.00,OVC,,0.05,0.0,WeatherDisplay:10.37,2013-01-02 02:57:00,
2013-01-01 22:02:00,32.9,20.5,29.84,NW,313,1.0,1.0,60,0.00,OVC,,0.05,0.0,WeatherDisplay:10.37,2013-01-02 03:02:00,
2013-01-01 22:07:00,32.8,20.0,29.84,NW,323,3.5,3.5,59,0.00,OVC,,0.05,0.0,WeatherDisplay:10.37,2013-01-02 03:07:00,
2013-01-01 22:12:00,32.8,20.0,29.84,NW,316,2.3,2.3,59,0.00,OVC,,0.05,0.0,WeatherDisplay:10.37,2013-01-02 03:12:00,
2013-01-01 22:17:00,32.7,19.9,29.85,NNW,339,2.3,2.3,59,0.00,OVC,,0.05,0.0,WeatherDisplay:10.37,2013-01-02 03:17:00,
2013-01-01 22:22:00,32.5,20.1,29.85,NW,313,1.1,0.0,60,0.00,OVC,,0.05,0.0,WeatherDisplay:10.37,2013-01-02 03:22:00,
2013-01-01 22:27:00,32.5,19.7,29.85,NNW,335,1.1,0.0,59,0.00,OVC,,0.05,0.0,WeatherDisplay:10.37,2013-01-02 03:27:00,
2013-01-01 22:32:00,32.4,18.8,29.85,NNW,333,2.3,0.0,57,0.00,OVC,,0.05,0.0,WeatherDisplay:10.37,2013-01-02 03:32:00,
2013-01-01 22:38:00,32.1,18.2,29.85,NNW,335,5.8,5.8,56,0.00,OVC,,0.05,0.0,WeatherDisplay:10.37,2013-01-02 03:38:00,
2013-01-01 22:43:00,31.9,18.0,29.85,WNW,282,2.3,2.3,56,0.00,OVC,,0.05,0.0,WeatherDisplay:10.37,2013-01-02 03:43:00,
2013-01-01 22:48:00,31.8,17.5,29.86,WNW,288,11.5,11.5,55,0.00,OVC,,0.05,0.0,WeatherDisplay:10.37,2013-01-02 03:48:00,
2013-01-01 22:54:00,31.6,16.8,29.86,NW,316,1.1,1.1,54,0.00,OVC,,0.05,0.0,WeatherDisplay:10.37,2013-01-02 03:54:00,
2013-01-01 22:59:00,31.5,16.7,29.87,NW,308,3.5,3.5,54,0.00,OVC,,0.05,0.0,WeatherDisplay:10.37,2013-01-02 03:59:00,
2013-01-01 23:04:00,31.5,16.7,29.87,NNW,337,5.8,5.8,54,0.00,OVC,,0.05,0.0,WeatherDisplay:10.37,2013-01-02 04:04:00,
2013-01-01 23:09:00,31.3,16.1,29.87,North,350,3.5,3.5,53,0.00,OVC,,0.05,0.0,WeatherDisplay:10.37,2013-01-02 04:09:00,
2013-01-01 23:14:00,31.2,16.5,29.87,NNW,339,3.5,3.5,54,0.00,OVC,,0.05,0.0,WeatherDisplay:10.37,2013-01-02 04:14:00,
2013-01-01 23:19:00,31.2,16.5,29.87,NW,326,2.3,0.0,54,0.00,OVC,,0.05,0.0,WeatherDisplay:10.37,2013-01-02 04:19:00,
2013-01-01 23:24:00,31.2,16.5,29.87,NW,322,1.1,1.1,54,0.00,OVC,,0.05,0.0,WeatherDisplay:10.37,2013-01-02 04:24:00,
2013-01-01 23:29:00,31.0,15.8,29.87,NNW,346,3.5,3.5,53,0.00,OVC,,0.05,0.0,WeatherDisplay:10.37,2013-01-02 04:29:00,
2013-01-01 23:34:00,30.9,16.2,29.87,NNW,344,3.5,3.5,54,0.00,OVC,,0.05,0.0,WeatherDisplay:10.37,2013-01-02 04:34:00,
2013-01-01 23:39:00,30.7,16.0,29.87,North,0,4.6,4.6,54,0.00,OVC,,0.05,0.0,WeatherDisplay:10.37,2013-01-02 04:39:00,
2013-01-01 23:44:00,30.7,16.0,29.87,North,1,5.8,5.8,54,0.00,OVC,,0.05,0.0,WeatherDisplay:10.37,2013-01-02 04:44:00,
2013-01-01 23:49:00,30.6,16.3,29.87,NW,311,1.1,0.0,55,0.00,OVC,,0.05,0.0,WeatherDisplay:10.37,2013-01-02 04:49:00,
2013-01-01 23:54:00,30.4,16.1,29.87,SSW,213,2.3,2.3,55,0.00,OVC,,0.05,0.0,WeatherDisplay:10.37,2013-01-02 04:54:00,
2013-01-01 23:59:00,30.3,16.0,29.86,NW,319,2.3,2.3,55,0.00,OVC,,0.05,0.0,WeatherDisplay:10.37,2013-01-02 04:59:00,